Location: Bannatyne
(13.0833°N, 59.5333°W)
Time: 06:46:00
(UTC+00:00)

deb Explorer IX - Pass Details

Date: 25 January 2020
Orbit: 549 x 1099 km, 38.8° (Epoch: 17 February)

Event Time Altitude Azimuth Distance (km) Brightness Sun altitude
Rises 22:36:22 0° 226° (SW) 3,278 ? -10.2°
Reaches altitude 10° 22:38:42 10° 224° (SW) 2,431 ? -10.8°
Maximum altitude 22:44:33 75° 139° (SE) 957 ? -12.1°
Enters shadow 22:50:01 16° 56° (NE) 2,342 ? -13.4°
Drops below altitude 10° 22:51:20 10° 55° (NE) 2,801 - -13.7°
Sets 22:54:11 0° 54° (NE) 3,810 - -14.4°
